RH
19 21 32 37 47 62 71 70 63 54 42 31 22 14 11 9 9 13 13 9 15 13 14 13 13 11 13 13 13 14 18 16 14 13 15 18 22 21 21 20 23 23 24 30 34
21 15 15 21 29 39 44 57 70 70 63 52 41 32 22 15 13 12 7 10 12 14 16 15 14 12 14 14 14 16 17 15 12 11 16 17 20 23 20 20 22 24 28 32 34
31 28 19 13 14 20 25 35 40 53 66 70 65 54 43 32 23 16 10 7 7 11 16 17 15 14 15 15 14 15 16 14 12 12 14 16 17 24 23 21 21 23 23 24 27
32 31 30 22 14 10 13 19 24 31 37 52 65 72 65 52 33 30 23 14 12 9 12 14 15 17 16 16 15 18 16 16 15 13 15 15 16 16 16 16 20 22 24 23 22
35 34 34 30 24 15 11 9 11 17 20 29 41 54 63 65 46 35 27 24 21 17 13 12 14 17 18 15 15 18 17 16 17 14 16 17 16 16 15 16 17 20 24 25 24
30 38 40 43 34 25 17 13 10 9 14 24 28 40 48 43 45 51 40 31 24 28 23 21 16 14 17 19 17 15 16 16 17 17 15 18 16 15 14 16 16 16 17 21 23
22 28 41 46 46 38 27 18 13 10 9 12 26 30 34 31 28 33 47 42 39 28 29 27 26 25 24 21 19 19 20 20 18 18 18 19 17 15 13 15 15 14 15 15 17
20 20 30 40 47 44 36 27 19 14 11 10 11 23 28 25 17 22 35 35 40 43 38 28 33 34 28 23 20 21 21 23 18 19 20 23 19 16 15 14 12 11 12 12 12
19 23 22 43 48 46 39 32 25 19 15 12 12 15 19 17 15 11 26 33 29 33 37 41 38 34 35 35 36 25 25 20 18 16 18 21 19 18 18 18 16 15 14 14 12
19 27 30 44 52 52 47 40 30 25 19 17 15 29 15 19 16 12 17 34 35 34 35 31 38 40 35 35 38 35 30 27 24 18 20 19 16 15 17 18 17 17 17 17 17
25 46 55 53 57 58 53 41 40 39 27 18 17 13 28 39 36 28 20 32 40 40 35 40 39 28 25 33 31 27 32 31 24 19 18 14 15 17 18 19 19 18 19 19 18
53 56 58 60 63 65 58 51 57 58 55 43 21 20 14 21 34 36 41 41 48 40 49 53 36 18 21 23 30 38 33 27 24 25 28 27 26 23 25 25 22 23 20 20 21
62 66 63 72 76 69 63 53 60 64 59 37 34 31 19 21 23 32 43 56 39 45 48 50 23 29 25 25 25 26 32 31 31 28 29 32 35 34 33 25 22 20 18 18 18
64 74 81 79 85 79 64 67 71 70 55 31 24 21 27 27 25 20 39 43 64 52 51 59 31 36 36 31 26 24 19 24 26 40 42 32 39 31 26 28 31 30 27 24 15
65 82 88 96 92 88 87 90 81 64 66 30 27 22 19 31 17 15 27 50 50 56 72 60 51 47 44 31 32 23 27 23 26 35 34 41 55 28 26 25 24 25 25 25 25
71 88 92 97 98 94 95 92 85 74 70 39 48 48 44 39 28 22 25 45 51 72 77 72 56 64 43 37 38 31 37 30 29 34 48 28 39 22 26 26 28 27 25 26 27
70 79 89 90 96 94 90 85 86 83 52 51 59 58 60 54 50 41 32 39 60 67 77 57 53 52 55 55 44 45 44 54 56 52 47 26 40 27 19 21 21 20 20 22 25
57 74 84 83 87 95 86 82 88 57 49 53 66 68 68 72 62 60 53 45 45 58 54 57 59 45 43 50 44 46 51 64 66 57 42 31 45 27 15 19 17 18 18 20 22
54 65 80 85 82 87 78 86 74 62 54 59 73 69 79 86 81 69 78 70 46 57 93 89 74 39 50 52 52 51 60 43 61 51 59 44 38 32 17 16 16 15 17 18 21
52 65 74 80 86 91 92 82 72 71 70 71 77 69 72 73 76 80 85 92 82 84 84 82 88 55 50 52 54 64 52 68 73 86 79 54 42 40 21 16 15 19 22 22 25
56 68 73 82 88 96 94 84 75 69 69 76 66 62 69 75 74 78 86 84 98 93 89 89 98 62 72 70 59 55 58 64 65 77 92 80 50 27 20 17 21 23 26 29 35
62 76 82 93 98 93 89 78 62 58 57 58 54 49 60 66 70 74 82 79 93 95 98 97 91 85 78 65 66 67 66 64 71 73 77 84 68 30 26 16 16 21 29 31 36
72 73 75 86 95 96 85 74 64 56 56 53 53 45 43 53 66 62 66 67 80 88 96 91 95 81 59 67 73 85 79 77 80 90 78 83 83 28 31 24 19 20 20 28 37
69 76 74 76 79 82 78 74 76 72 68 65 58 55 54 47 51 66 63 63 67 74 76 89 95 92 91 81 82 87 86 86 89 98 92 96 59 31 28 27 19 20 25 27 29
70 74 76 76 74 73 71 63 64 66 66 69 72 74 73 68 69 61 63 68 71 81 85 91 96 92 85 71 82 86 77 81 90 88 97 72 82 57 34 38 30 28 26 34 37
71 75 75 77 78 82 87 91 84 75 80 77 78 72 79 76 71 64 69 69 78 76 85 95 91 91 92 83 86 84 81 69 77 73 78 76 73 49 41 46 46 36 35 40 40
69 75 80 79 82 83 82 81 83 87 85 90 92 89 83 79 81 76 67 62 64 80 84 95 98 98 90 72 81 94 58 64 67 62 61 72 63 60 49 42 50 48 46 42 34